Wind_Speed
22 22 22 22 22 22 21 20 19 18 18 18 18 18 17 16 16 16 15 15 15 14 14 14 14 14 13 12 12 12 12 11 11 11 10 10 9 9 8 8 8 8 7 7 7 6 6 6 6
23 23 23 23 23 22 21 20 20 19 19 19 19 19 18 18 17 17 16 16 16 16 16 15 15 15 15 14 14 14 13 13 13 13 12 12 11 10 10 10 9 9 9 8 8 8 7 7 7
23 24 25 25 24 23 22 21 21 20 21 21 20 20 20 20 19 18 18 18 17 17 17 16 16 16 16 16 15 15 14 14 14 14 14 13 13 13 12 12 11 11 10 10 10 9 9 9 9
25 25 26 26 25 24 23 23 23 23 22 22 22 22 21 21 21 20 20 19 18 18 18 18 17 17 17 17 16 16 16 15 15 15 15 14 14 14 14 14 13 13 12 12 12 11 11 11 11
27 27 27 27 26 25 24 24 25 24 24 24 24 23 23 23 22 21 21 20 20 19 19 19 19 18 18 18 18 17 17 17 16 16 16 16 16 16 16 15 15 15 14 14 14 13 13 13 12
28 29 29 28 27 26 26 25 26 26 26 26 26 25 25 24 24 23 23 22 21 20 20 20 20 20 19 19 19 19 18 18 18 17 17 17 17 17 17 17 17 17 16 16 15 15 15 14 14
30 30 30 29 28 28 27 27 27 27 27 27 27 27 26 26 25 25 25 24 23 22 22 22 21 21 21 21 20 20 20 20 19 19 19 19 19 19 19 19 19 18 18 17 17 17 16 16 16
31 31 31 30 29 28 28 28 28 29 29 29 29 28 27 27 27 26 26 25 25 24 23 23 23 23 22 22 21 21 21 21 21 20 20 20 21 21 21 21 20 20 20 19 19 18 18 18 17
32 33 31 30 30 29 29 30 30 30 30 30 30 30 29 28 28 28 28 27 27 25 25 24 24 24 24 23 23 23 23 22 22 21 21 21 22 22 22 21 22 22 22 22 21 20 20 19 19
33 33 31 31 31 31 31 32 32 31 31 31 32 31 30 30 30 29 29 28 28 27 26 26 26 25 25 25 25 25 25 24 23 23 23 23 23 23 23 23 23 23 23 23 23 23 22 21 21
34 34 32 32 33 33 33 33 33 33 32 32 32 32 32 31 32 31 31 30 29 29 28 28 28 28 27 27 26 27 27 26 25 25 25 25 25 25 25 25 25 25 25 25 25 24 24 23 23
35 35 34 34 34 34 35 35 35 35 34 34 34 34 34 33 33 33 32 32 31 30 30 30 30 30 29 29 28 27 27 27 27 27 27 27 27 27 27 27 27 27 27 27 27 26 26 26 25
37 36 37 36 36 36 36 36 36 36 36 36 35 35 34 34 35 34 34 34 33 33 32 32 32 31 31 31 30 30 29 29 29 29 29 28 28 29 29 29 29 29 29 28 28 28 28 27 27
36 37 38 38 38 38 38 37 37 36 36 36 36 36 35 36 35 35 36 35 34 34 34 34 33 33 33 33 32 32 31 31 31 31 30 30 30 30 31 31 31 31 31 30 30 30 30 29 29
37 38 38 39 39 39 39 39 38 37 38 38 37 37 37 37 37 36 37 37 36 36 35 35 35 35 35 35 34 34 34 33 33 33 33 33 32 32 33 33 33 33 33 33 32 32 31 31 31
38 38 38 39 40 40 40 40 39 39 39 39 39 39 38 38 38 38 38 38 38 37 37 37 37 37 37 36 36 36 36 35 35 35 35 35 35 35 35 35 35 35 35 35 35 34 33 33 33
38 39 38 39 39 40 41 41 41 40 41 41 41 40 40 40 40 40 40 40 39 39 39 39 39 38 38 38 38 38 37 37 37 37 37 37 37 37 37 37 37 37 37 37 37 36 36 35 34
38 39 39 39 40 41 42 42 42 42 42 42 42 43 42 42 42 42 41 41 41 41 41 41 40 40 40 39 39 39 39 39 39 39 39 39 39 39 39 39 39 39 38 38 38 38 38 36 35
39 40 41 41 41 42 42 43 43 43 43 43 43 44 44 44 44 44 43 43 43 42 42 41 41 40 41 40 40 40 41 41 41 41 41 41 41 40 40 41 40 40 40 40 40 39 39 39 37
39 40 41 41 42 43 43 43 44 44 43 43 44 44 45 45 45 45 45 44 44 44 44 44 43 42 42 42 43 43 42 43 42 42 42 42 42 42 41 41 41 41 41 41 41 41 41 40 40
40 40 41 42 43 43 44 44 43 44 44 44 44 44 45 45 45 46 46 46 46 45 45 45 45 45 44 45 45 45 44 44 44 43 44 44 44 44 43 43 42 42 42 41 42 42 42 43 43
40 40 41 42 43 43 44 44 42 42 43 43 43 44 44 45 45 46 46 47 47 47 47 47 47 47 47 47 47 47 46 46 45 45 46 45 45 46 45 45 45 45 44 45 44 44 44 44 44
39 39 40 41 43 44 43 45 42 41 41 41 42 43 44 44 44 45 46 47 47 47 48 48 48 49 49 49 49 48 48 48 48 47 47 47 47 47 47 47 47 47 47 47 47 47 46 46 45
37 38 39 41 42 44 42 43 42 40 40 40 41 42 43 44 44 45 45 46 46 47 47 48 48 49 49 49 50 50 50 49 49 49 49 49 49 49 49 49 49 49 49 49 49 49 48 48 48
35 36 38 40 41 43 41 42 42 39 38 39 40 41 42 43 43 44 45 45 46 47 47 48 48 49 49 50 50 50 50 50 51 51 51 51 51 51 50 50 50 51 51 50 50 50 50 50 50
34 34 36 38 39 40 40 41 40 39 38 38 39 39 40 42 42 43 44 45 46 47 47 48 49 49 49 49 50 51 51 51 51 52 52 52 52 52 52 52 52 52 52 52 52 52 51 52 51
33 34 34 36 38 40 41 40 39 38 37 37 37 38 39 40 42 43 44 45 46 46 47 48 48 49 49 50 50 51 51 51 52 52 53 53 53 53 53 53 54 54 54 54 52 52 52 52 52
32 33 33 35 37 39 40 39 39 38 37 37 37 38 39 40 41 42 43 45 46 46 47 48 48 49 49 50 51 51 51 51 52 52 53 54 54 54 55 54 54 54 54 55 54 52 52 52 52
31 32 33 35 36 38 40 39 38 38 38 38 38 38 39 40 41 42 43 44 45 46 47 48 49 49 50 51 51 51 51 52 52 53 53 54 54 55 55 54 55 55 55 55 54 53 53 53 52
32 32 33 34 36 37 39 39 37 37 38 38 38 39 40 41 42 43 44 45 45 46 47 48 49 50 51 51 51 51 52 52 52 53 53 54 55 55 55 55 55 56 56 56 55 55 54 54 53
Wind_Direction
246 246 246 246 247 247 248 247 245 244 244 245 246 247 248 248 247 248 247 245 242 240 241 243 243 245 246 245 246 247 248 249 249 248 248 250 251 252 253 255 257 257 251 247 246 251 254 257 258
245 245 245 245 246 247 247 246 245 245 245 245 245 246 247 247 247 247 247 246 243 242 243 245 246 248 249 249 250 249 248 248 249 251 251 251 251 252 255 256 257 258 256 251 251 254 256 258 259
245 245 245 245 246 247 247 246 244 245 246 246 246 246 247 247 246 246 245 246 245 244 246 246 248 249 249 251 251 250 250 249 250 252 252 252 253 255 254 254 253 254 255 254 254 255 256 257 257
245 245 246 247 248 248 248 246 245 245 246 246 247 248 248 248 247 246 244 245 246 246 246 247 248 249 250 251 251 251 251 251 251 252 253 254 254 254 253 253 251 251 252 254 256 257 256 256 258
246 246 247 248 249 249 249 247 245 245 245 246 248 248 248 247 247 246 245 244 245 246 247 248 248 249 250 250 250 250 251 252 253 254 255 256 256 254 254 253 253 252 251 253 255 257 258 259 259
248 248 249 250 250 249 249 247 246 245 245 246 247 247 248 248 248 247 245 245 245 246 248 249 249 250 249 249 250 251 252 253 254 256 257 258 258 257 255 254 254 254 252 252 253 255 258 258 260
249 249 249 249 249 249 248 247 246 245 245 245 246 247 246 247 248 247 246 245 246 248 249 250 250 250 250 249 250 251 252 254 255 256 257 258 259 258 256 255 255 254 253 252 253 256 257 258 259
250 250 249 249 249 249 249 248 247 246 246 246 247 247 246 247 247 247 246 246 247 249 250 250 251 251 250 250 251 251 253 254 255 257 258 258 259 258 257 257 256 256 255 254 255 257 259 259 257
250 250 250 250 250 249 248 248 247 247 247 247 247 247 247 247 247 246 246 247 248 249 250 250 250 250 251 252 253 253 254 255 256 256 258 259 259 258 257 257 256 257 256 255 255 257 258 258 256
251 252 252 251 250 249 248 248 248 248 247 247 247 247 247 247 246 246 246 246 248 249 249 250 249 249 251 254 255 255 255 256 257 257 260 259 258 258 258 258 257 256 256 257 257 256 257 256 255
253 252 252 251 249 249 248 249 249 249 248 248 248 247 247 246 245 245 245 246 247 247 248 249 250 250 252 254 256 257 256 256 257 258 260 260 260 259 259 258 258 257 257 258 258 258 257 255 257
254 253 253 251 250 249 249 249 249 250 250 248 248 248 247 246 245 245 246 246 247 247 248 249 251 253 253 254 256 257 257 257 257 259 259 260 261 259 259 259 259 259 259 259 258 258 257 257 257
255 253 252 252 251 251 250 250 250 250 250 249 248 247 247 246 245 245 245 247 248 248 249 250 251 252 253 253 255 257 259 259 259 259 259 260 260 260 260 260 260 260 260 259 258 258 258 257 258
255 254 253 252 252 251 252 251 251 250 250 249 248 247 247 247 247 246 246 247 249 249 249 250 251 252 253 254 255 257 259 260 260 260 260 260 260 260 260 260 260 259 259 259 259 258 257 257 258
256 255 254 252 252 252 252 251 251 250 249 248 248 248 248 248 248 248 246 247 248 249 249 250 252 253 253 255 256 257 258 260 261 261 261 261 261 260 260 260 260 259 259 259 259 259 258 258 259
256 255 255 254 253 253 252 252 251 250 249 248 248 248 248 249 249 248 248 247 248 249 250 251 252 252 253 255 257 258 259 259 261 262 262 262 262 261 261 261 260 259 258 258 259 259 260 259 259
257 256 256 256 255 255 254 253 250 250 249 248 248 248 248 249 249 248 248 248 249 250 250 251 252 252 253 255 257 258 259 260 260 261 262 262 262 262 261 261 259 259 259 258 258 258 259 260 260
260 258 257 257 256 255 254 253 251 250 249 249 248 248 248 248 249 249 249 249 249 250 251 252 253 254 254 255 257 258 259 260 260 261 262 262 262 262 261 261 260 259 259 259 258 259 259 261 261
260 258 257 256 256 255 254 253 252 251 250 250 249 249 249 249 249 249 249 250 250 251 251 253 253 254 255 255 256 258 259 260 260 261 262 261 262 261 260 260 260 259 259 259 259 259 259 260 261
261 260 259 258 258 257 256 254 253 251 251 251 250 250 249 250 250 250 250 250 250 251 252 252 253 254 255 256 257 258 259 260 261 261 261 261 261 261 261 261 260 259 259 259 259 259 259 261 262
261 261 261 260 259 258 257 255 253 252 252 252 251 250 250 251 250 250 250 250 250 251 251 252 253 254 256 257 258 259 260 260 260 260 261 261 261 262 261 260 259 259 259 259 258 259 260 261 262
262 262 261 260 259 258 257 256 252 253 252 252 252 251 251 250 250 250 250 250 251 251 251 253 254 255 255 257 258 259 260 260 260 260 260 261 261 262 262 261 260 260 260 260 260 261 262 262 262
263 262 261 260 259 258 257 257 254 253 253 253 253 252 251 250 250 250 250 251 251 252 252 253 254 255 256 257 258 259 260 260 260 260 260 260 261 262 262 261 260 260 260 261 261 262 262 262 261
263 263 261 259 258 258 255 256 255 254 254 254 253 252 252 251 251 250 251 252 252 253 253 254 254 256 256 257 258 259 259 259 260 260 261 261 261 261 262 261 260 260 260 260 260 261 261 262 262
263 263 262 260 259 258 256 256 257 256 255 255 254 254 252 252 251 251 251 252 253 253 254 255 255 256 257 258 258 259 259 259 260 260 261 261 261 261 261 261 260 260 260 260 260 260 261 261 261
264 264 263 263 263 261 259 258 258 258 257 256 255 254 254 253 252 252 252 253 254 254 255 255 256 257 257 258 258 259 260 260 260 261 261 261 261 261 261 261 260 259 259 259 260 260 260 260 261
264 263 263 263 263 262 261 259 258 259 259 257 256 254 254 254 254 254 254 254 254 255 255 256 257 258 258 258 258 259 260 260 261 261 261 261 260 261 262 262 261 260 259 259 260 260 260 259 259
263 263 262 261 262 263 262 261 260 259 260 259 258 256 255 255 255 255 255 255 255 256 256 257 257 258 259 259 259 260 261 261 261 261 261 261 261 262 262 262 261 260 260 260 259 259 259 259 259
263 261 261 262 261 263 264 264 263 263 262 262 260 258 257 257 257 257 257 258 258 258 258 259 259 259 259 259 259 260 261 261 262 262 262 262 262 262 263 262 261 260 260 259 258 258 258 259 260
264 262 261 263 263 263 264 265 266 266 264 263 261 259 258 258 259 260 259 260 260 260 260 261 261 260 260 260 260 261 261 262 263 263 263 263 263 263 263 262 260 259 259 259 258 258 259 259 260
Height
5820 5821 5822 5823 5824 5824 5825 5827 5827 5828 5829 5829 5830 5830 5831 5833 5834 5836 5835 5834 5834 5835 5835 5836 5837 5837 5837 5838 5838 5839 5840 5840 5840 5841 5841 5841 5841 5842 5842 5842 5842 5842 5842 5842 5843 5843 5843 5843 5844
5815 5816 5818 5818 5819 5820 5822 5823 5823 5824 5825 5825 5826 5827 5827 5828 5829 5830 5830 5830 5831 5832 5832 5833 5834 5834 5835 5835 5836 5837 5837 5837 5838 5838 5839 5839 5839 5839 5840 5840 5840 5840 5840 5841 5841 5841 5841 5842 5842
5811 5811 5813 5813 5814 5816 5817 5818 5819 5820 5820 5821 5822 5822 5823 5824 5825 5826 5826 5827 5828 5829 5829 5830 5831 5831 5832 5833 5833 5834 5834 5835 5835 5836 5836 5836 5837 5837 5837 5837 5837 5838 5838 5839 5839 5839 5839 5840 5840
5806 5807 5808 5809 5809 5811 5812 5813 5814 5815 5816 5816 5817 5818 5819 5820 5821 5822 5823 5823 5824 5825 5826 5827 5827 5828 5829 5829 5830 5831 5831 5831 5832 5832 5833 5833 5833 5834 5834 5834 5834 5835 5835 5836 5836 5837 5837 5837 5837
5800 5801 5802 5803 5804 5806 5807 5808 5809 5810 5811 5811 5812 5813 5814 5815 5816 5817 5818 5819 5820 5821 5822 5823 5823 5824 5825 5826 5826 5827 5828 5828 5828 5829 5829 5830 5830 5830 5830 5831 5831 5832 5832 5833 5833 5834 5834 5834 5835
5794 5795 5797 5798 5799 5801 5801 5802 5803 5804 5805 5806 5807 5808 5809 5810 5811 5812 5814 5815 5816 5817 5818 5819 5819 5820 5821 5822 5823 5823 5824 5824 5825 5825 5825 5826 5826 5826 5826 5827 5827 5828 5829 5829 5830 5831 5831 5831 5831
5789 5789 5790 5792 5793 5794 5796 5796 5797 5798 5799 5800 5801 5802 5803 5805 5806 5807 5809 5810 5811 5812 5813 5814 5815 5816 5817 5817 5818 5819 5819 5820 5821 5821 5821 5822 5822 5822 5823 5823 5824 5824 5825 5826 5826 5827 5827 5828 5828
5781 5783 5783 5785 5787 5788 5789 5790 5791 5792 5793 5794 5795 5797 5798 5799 5800 5801 5803 5804 5806 5807 5808 5809 5810 5811 5812 5813 5814 5814 5815 5815 5816 5817 5817 5817 5817 5818 5818 5819 5819 5820 5821 5821 5822 5823 5823 5824 5824
5774 5776 5777 5779 5780 5782 5782 5783 5784 5785 5786 5788 5789 5791 5792 5793 5794 5796 5797 5799 5800 5802 5803 5804 5805 5806 5807 5808 5809 5809 5810 5811 5811 5812 5812 5812 5813 5813 5813 5814 5815 5815 5816 5817 5817 5818 5819 5819 5820
5766 5768 5771 5772 5773 5774 5775 5775 5777 5778 5779 5781 5782 5784 5785 5786 5788 5789 5791 5793 5794 5796 5797 5799 5800 5801 5801 5802 5803 5804 5805 5805 5806 5806 5807 5807 5808 5808 5808 5809 5810 5810 5811 5812 5813 5813 5814 5814 5815
5759 5761 5763 5763 5764 5765 5766 5768 5769 5770 5772 5774 5775 5776 5778 5779 5781 5783 5785 5786 5788 5790 5791 5792 5793 5795 5796 5797 5797 5798 5799 5800 5800 5801 5801 5802 5802 5802 5803 5804 5804 5805 5806 5807 5807 5808 5809 5809 5810
5751 5753 5754 5755 5756 5757 5758 5760 5761 5763 5765 5766 5767 5769 5770 5772 5774 5776 5778 5780 5781 5783 5785 5786 5787 5788 5789 5790 5791 5792 5793 5794 5794 5795 5795 5796 5796 5797 5797 5798 5798 5799 5800 5800 5801 5802 5803 5803 5804
5742 5744 5745 5746 5747 5749 5750 5751 5753 5755 5756 5758 5759 5761 5763 5764 5766 5768 5770 5772 5774 5776 5777 5779 5780 5781 5782 5783 5785 5785 5786 5787 5788 5788 5789 5789 5790 5790 5791 5791 5792 5793 5793 5794 5795 5796 5796 5797 5798
5733 5734 5735 5737 5738 5740 5741 5743 5744 5747 5748 5750 5751 5753 5755 5757 5758 5760 5763 5764 5766 5768 5770 5771 5773 5774 5775 5776 5777 5778 5779 5780 5781 5781 5782 5782 5782 5783 5784 5784 5785 5786 5786 5787 5788 5789 5790 5790 5791
5723 5725 5726 5727 5729 5730 5732 5734 5736 5738 5739 5741 5743 5744 5746 5748 5750 5752 5754 5756 5758 5760 5762 5763 5765 5766 5767 5768 5769 5770 5771 5772 5773 5773 5774 5774 5775 5775 5776 5777 5778 5778 5779 5780 5780 5781 5782 5783 5784
5713 5715 5716 5718 5719 5720 5723 5725 5726 5728 5730 5731 5733 5735 5737 5739 5741 5744 5745 5747 5749 5751 5753 5755 5756 5757 5759 5760 5761 5762 5763 5764 5765 5765 5766 5766 5767 5767 5768 5769 5769 5770 5771 5772 5772 5773 5774 5775 5776
5704 5705 5706 5708 5709 5710 5712 5714 5716 5717 5719 5722 5724 5726 5728 5730 5732 5734 5736 5738 5740 5742 5744 5745 5747 5748 5750 5751 5752 5753 5754 5755 5755 5756 5757 5757 5758 5758 5759 5759 5760 5761 5762 5763 5764 5765 5766 5766 5767
5695 5696 5697 5698 5698 5699 5701 5703 5705 5706 5709 5711 5713 5715 5718 5720 5722 5724 5726 5728 5730 5732 5734 5735 5737 5738 5740 5741 5742 5743 5744 5745 5746 5747 5747 5748 5748 5749 5749 5750 5751 5752 5753 5754 5755 5756 5756 5757 5758
5684 5685 5686 5687 5687 5689 5690 5692 5694 5695 5697 5700 5702 5704 5707 5709 5711 5713 5716 5718 5720 5722 5724 5725 5727 5728 5729 5731 5732 5733 5734 5735 5736 5737 5737 5738 5739 5739 5740 5740 5741 5742 5743 5744 5745 5746 5746 5747 5748
5674 5674 5675 5676 5677 5677 5679 5681 5683 5684 5686 5689 5691 5693 5695 5697 5700 5702 5704 5706 5708 5711 5712 5714 5716 5717 5719 5720 5721 5722 5723 5724 5725 5726 5726 5727 5728 5729 5729 5729 5730 5731 5732 5733 5734 5735 5736 5737 5738
5663 5664 5664 5665 5665 5665 5667 5669 5671 5673 5675 5677 5679 5681 5683 5686 5688 5690 5692 5694 5696 5698 5701 5702 5704 5706 5707 5708 5710 5711 5712 5713 5714 5715 5715 5716 5717 5718 5718 5719 5720 5720 5721 5722 5723 5725 5726 5727 5727
5652 5652 5652 5653 5653 5654 5656 5656 5660 5661 5663 5665 5667 5669 5671 5673 5675 5677 5679 5681 5684 5686 5688 5690 5692 5693 5695 5696 5698 5699 5700 5701 5702 5703 5704 5704 5705 5706 5706 5707 5708 5709 5710 5711 5712 5713 5714 5715 5716
5640 5641 5641 5641 5641 5642 5644 5644 5648 5650 5652 5654 5656 5657 5659 5661 5663 5665 5667 5669 5671 5673 5675 5677 5679 5681 5682 5684 5685 5686 5687 5688 5689 5690 5691 5692 5693 5693 5694 5694 5695 5696 5697 5698 5699 5700 5701 5702 5703
5629 5629 5629 5628 5629 5630 5633 5633 5635 5639 5641 5642 5644 5645 5646 5648 5650 5652 5654 5656 5658 5660 5662 5664 5666 5668 5669 5670 5672 5673 5674 5675 5676 5677 5678 5679 5680 5680 5681 5681 5682 5683 5684 5685 5686 5687 5688 5689 5690
5619 5619 5618 5617 5617 5619 5622 5622 5625 5628 5630 5630 5632 5633 5635 5636 5638 5640 5642 5644 5646 5648 5650 5651 5653 5654 5656 5657 5658 5659 5660 5662 5663 5663 5664 5665 5666 5666 5667 5668 5668 5669 5670 5672 5673 5674 5675 5676 5677
5609 5609 5610 5609 5609 5609 5610 5611 5615 5617 5618 5619 5620 5621 5623 5624 5626 5628 5630 5632 5634 5636 5637 5638 5640 5641 5642 5644 5645 5646 5647 5648 5649 5649 5650 5651 5651 5652 5653 5653 5654 5655 5656 5658 5659 5660 5661 5662 5663
5598 5598 5599 5599 5598 5598 5599 5601 5605 5606 5607 5608 5609 5610 5612 5613 5614 5616 5618 5619 5621 5623 5624 5625 5627 5628 5629 5630 5630 5631 5632 5633 5634 5635 5635 5636 5637 5637 5638 5638 5639 5641 5642 5643 5644 5645 5646 5647 5649
5589 5589 5589 5588 5588 5588 5589 5591 5594 5595 5596 5598 5599 5599 5600 5601 5602 5604 5605 5606 5608 5609 5610 5611 5613 5614 5615 5615 5616 5617 5618 5619 5619 5620 5620 5621 5622 5622 5623 5623 5624 5626 5627 5628 5630 5631 5632 5633 5634
5580 5580 5579 5578 5579 5579 5579 5584 5584 5585 5586 5587 5587 5588 5589 5590 5591 5592 5593 5594 5595 5596 5597 5598 5598 5599 5600 5601 5602 5603 5604 5604 5605 5605 5605 5606 5606 5607 5607 5608 5609 5610 5612 5613 5615 5616 5618 5619 5620
5569 5569 5570 5570 5569 5569 5570 5575 5574 5575 5574 5575 5576 5576 5577 5578 5579 5580 5581 5581 5582 5582 5583 5584 5584 5585 5586 5587 5588 5588 5589 5590 5590 5590 5590 5590 5591 5591 5592 5592 5593 5595 5597 5598 5600 5601 5602 5603 5605